| time (UTC) | temp F | wind direction | speed MPH | gust MPH | rain 1hr in | rain 24hr in | rain mn in | humidity % | barometer mb |
| 20260504120110 | 58 | 144 | 0.0 | 2.0 | 0.00 | 0.00 | 0.00 | 88 | 1013.0 |
| 20260504100104 | 59 | 100 | 0.0 | 3.0 | 0.00 | 0.00 | 0.00 | 84 | 1013.6 |
| 20260504090123 | 60 | 140 | 0.0 | 4.0 | 0.00 | 0.00 | 0.00 | 81 | 1013.8 |
| 20260504081600 | 61 | 200 | 0.0 | 2.0 | 0.00 | 0.00 | 0.00 | 79 | 1013.9 |
| 20260504050006 | 65 | 54 | 1.0 | 9.0 | 0.00 | 0.00 | 0.00 | 67 | 1016.0 |
| 20260504044501 | 65 | 151 | 1.0 | 6.0 | 0.00 | 0.00 | 0.00 | 66 | 1016.1 |
| 20260504043004 | 66 | 230 | 1.0 | 7.0 | 0.00 | 0.00 | 0.00 | 63 | 1016.2 |
| 20260504041501 | 66 | 137 | 2.0 | 10.0 | 0.00 | 0.00 | 0.00 | 61 | 1016.4 |
| 20260504040004 | 66 | 132 | 1.0 | 6.0 | 0.00 | 0.00 | 0.00 | 59 | 1016.3 |
| 20260504034502 | 66 | 302 | 1.0 | 8.0 | 0.00 | 0.00 | 0.00 | 56 | 1016.2 |
| 20260504033005 | 66 | 143 | 0.0 | 3.0 | 0.00 | 0.00 | 0.00 | 54 | 1016.2 |
| 20260504031501 | 67 | 143 | 0.0 | 2.0 | 0.00 | 0.00 | 0.00 | 53 | 1016.0 |
| 20260504030005 | 67 | 143 | 0.0 | 1.0 | 0.00 | 0.00 | 0.00 | 52 | 1016.1 |
| 20260504024502 | 68 | 143 | 0.0 | 1.0 | 0.00 | 0.00 | 0.00 | 52 | 1016.1 |
| 20260504023002 | 68 | 57 | 0.0 | 4.0 | 0.00 | 0.00 | 0.00 | 51 | 1016.0 |
| 20260504021501 | 68 | 78 | 0.0 | 2.0 | 0.00 | 0.00 | 0.00 | 50 | 1016.0 |
| 20260504020003 | 69 | 78 | 0.0 | 1.0 | 0.00 | 0.00 | 0.00 | 50 | 1015.9 |
| 20260504014505 | 69 | 78 | 0.0 | 2.0 | 0.00 | 0.00 | 0.00 | 49 | 1015.6 |
| 20260504013003 | 70 | 78 | 0.0 | 2.0 | 0.00 | 0.00 | 0.00 | 48 | 1015.3 |
| 20260503221610 | 80 | 315 | 3.0 | 8.0 | 0.00 | 0.00 | 0.00 | 35 | 1016.6 |
| 20260503214502 | 80 | 136 | 2.0 | 7.0 | 0.00 | 0.00 | 0.00 | 37 | 1017.0 |
| 20260503213003 | 80 | 111 | 2.0 | 8.0 | 0.00 | 0.00 | 0.00 | 35 | 1017.5 |
| 20260503211503 | 80 | 213 | 3.0 | 13.0 | 0.00 | 0.00 | 0.00 | 35 | 1017.5 |
| 20260503210006 | 80 | 241 | 2.0 | 11.0 | 0.00 | 0.00 | 0.00 | 35 | 1017.8 |
| 20260503204503 | 80 | 217 | 3.0 | 10.0 | 0.00 | 0.00 | 0.00 | 36 | 1018.2 |
| 20260503203003 | 79 | 74 | 3.0 | 10.0 | 0.00 | 0.00 | 0.00 | 37 | 1018.4 |
| 20260503201503 | 78 | 24 | 3.0 | 10.0 | 0.00 | 0.00 | 0.00 | 37 | 1018.6 |
| 20260503200006 | 79 | 37 | 3.0 | 12.0 | 0.00 | 0.00 | 0.00 | 37 | 1018.8 |
| 20260503194501 | 79 | 42 | 2.0 | 7.0 | 0.00 | 0.00 | 0.00 | 37 | 1019.0 |
| 20260503193002 | 79 | 236 | 2.0 | 11.0 | 0.00 | 0.00 | 0.00 | 31 | 1019.2 |
| 20260503191501 | 78 | 144 | 2.0 | 14.0 | 0.00 | 0.00 | 0.00 | 39 | 1019.2 |
| 20260503190006 | 79 | 92 | 1.0 | 10.0 | 0.00 | 0.00 | 0.00 | 37 | 1019.6 |
| 20260503184501 | 79 | 45 | 2.0 | 11.0 | 0.00 | 0.00 | 0.00 | 39 | 1019.8 |
| 20260503183000 | 78 | 41 | 3.0 | 11.0 | 0.00 | 0.00 | 0.00 | 39 | 1020.0 |
| 20260503181505 | 78 | 102 | 1.0 | 10.0 | 0.00 | 0.00 | 0.00 | 39 | 1020.3 |
| 20260503180004 | 78 | 225 | 2.0 | 9.0 | 0.00 | 0.00 | 0.00 | 37 | 1020.8 |
| 20260503174500 | 77 | 90 | 2.0 | 9.0 | 0.00 | 0.00 | 0.00 | 36 | 1021.0 |
| 20260503173002 | 78 | 182 | 1.0 | 8.0 | 0.00 | 0.00 | 0.00 | 38 | 1021.2 |
| 20260503171500 | 77 | 9 | 1.0 | 10.0 | 0.00 | 0.00 | 0.00 | 43 | 1021.3 |
| 20260503170112 | 76 | 216 | 1.0 | 9.0 | 0.00 | 0.00 | 0.00 | 40 | 1021.6 |
| 20260503160117 | 74 | 220 | 2.0 | 10.0 | 0.00 | 0.00 | 0.00 | 47 | 1022.2 |
| 20260503150104 | 68 | 240 | 1.0 | 5.0 | 0.00 | 0.00 | 0.00 | 67 | 1022.2 |